This demonstration page uses our WeatherBlox Daily Observations layout. Learn more.

Left ArrowRight Arrow

41.86663, -103.66717

Hourly Observations for December 18, 2020

Temp ( °F °C ) Dew Point ( °F °C ) Humidity (%) Winds ( mph kmh ) Pressure ( in mb ) Visibility ( mi km ) Precip ( " mm )
12:53 am 00:53 Clear 29 -1.7 23 -5 78 78 Calm 29.74 1007 10 16 0.00 0.00
1:53 am 01:53 Clear 27 -2.8 21 -6.1 78 78 NNE 5 7 29.77 1008 10 16 0.00 0.00
2:53 am 02:53 Clear 26 -3.3 21 -6.1 81 81 NNW 5 7 29.80 1009 10 16 0.00 0.00
3:53 am 03:53 Partly Cloudy 23 -5 18 -7.8 81 81 WNW 5 7 29.85 1011 10 16 0.00 0.00
4:53 am 04:53 Cloudy 33 0.6 25 -3.9 72 72 WNW 13 20 29.87 1011 10 16 0.00 0.00
5:21 am 05:21 Cloudy 35 1.7 28 -2.2 76 76 NW 13 20 29.93 1014 10 16 0.00 0.00
5:53 am 05:53 Cloudy 35 1.7 30 -1.1 82 82 WNW 13 20 29.91 1013 10 16 0.00 0.00
6:02 am 06:02 Cloudy 36 2 30 -1 81 81 WNW 12 19 29.96 1015 10 16 0.00 0.00
6:15 am 06:15 Cloudy 35 1.7 31 -0.6 85 85 WNW 13 20 29.97 1015 10 16 0.00 0.00
6:24 am 06:24 Cloudy 35 1.7 31 -0.6 85 85 WNW 14 22 29.97 1015 10 16 0.00 0.00
6:31 am 06:31 Cloudy 35 1.7 31 -0.6 85 85 WNW 12 19 29.98 1015 10 16 0.00 0.00
6:53 am 06:53 Cloudy with Light Rain 35 1.7 31 -0.6 85 85 NW 9 15 29.95 1014 10 16 0.00 0.00
7:53 am 07:53 Cloudy 35 1.7 32 0 89 89 NNW 10 17 29.98 1015 10 16 0.00 0.00
8:53 am 08:53 Cloudy 37 2.8 31 -0.6 79 79 NW 13 20 30.01 1016 10 16 0.00 0.00
9:53 am 09:53 Cloudy 38 3.3 29 -1.7 70 70 NNW 17 28 30.06 1018 10 16 0.00 0.00
10:53 am 10:53 Cloudy 39 3.9 28 -2.2 65 65 NW 16 26 30.09 1019 10 16 0.00 0.00
11:53 am 11:53 Cloudy 41 5 27 -2.8 57 57 NW 18 30 30.08 1019 10 16 0.00 0.00
12:53 pm 12:53 Sunny 43 6.1 26 -3.3 51 51 NW 20 31 30.08 1019 10 16 0.00 0.00
1:53 pm 13:53 Partly Cloudy 39 3.9 25 -3.9 57 57 WNW 18 30 30.11 1020 10 16 0.00 0.00
2:53 pm 14:53 Mostly Sunny 41 5 24 -4.4 51 51 NW 20 31 30.14 1021 10 16 0.00 0.00
3:53 pm 15:53 Cloudy 39 3.9 24 -4.4 55 55 NW 13 20 30.18 1022 10 16 0.00 0.00
4:53 pm 16:53 Cloudy 35 1.7 24 -4.4 64 64 NW 12 19 30.19 1022 10 16 0.00 0.00
5:53 pm 17:53 Mostly Cloudy 30 -1.1 22 -5.6 72 72 Calm 30.20 1023 10 16 0.00 0.00
6:53 pm 18:53 Cloudy 29 -1.7 23 -5 78 78 N 5 7 30.21 1023 10 16 0.00 0.00
7:53 pm 19:53 Partly Cloudy 28 -2.2 22 -5.6 78 78 W 7 11 30.21 1023 10 16 0.00 0.00
8:53 pm 20:53 Cloudy 29 -1.7 22 -5.6 75 75 NE 6 9 30.21 1023 10 16 0.00 0.00
9:53 pm 21:53 Mostly Cloudy 25 -3.9 20 -6.7 81 81 ESE 7 11 30.20 1023 10 16 0.00 0.00
10:53 pm 22:53 Clear 22 -5.6 17 -8.3 82 82 E 7 11 30.20 1023 10 16 0.00 0.00
11:53 pm 23:53 Clear 20 -6.7 15 -9.4 81 81 E 6 9 30.19 1022 10 16 0.00 0.00

Powered by AerisWeather